GW6305 Weather Reports


time (UTC)temp
C
wind
direction
speed
KPH
gust
KPH
rain 1hr
cm
rain 24hr
cm
rain mn
cm
humidity
%
barometer
mb
20260507001025 10 72 0.0 1.6 0.00 0.79 0.79 88 1009.2
20260507000520 10 72 0.0 0.0 0.00 0.79 0.79 87 1009.3
20260507000016 10 72 1.6 1.6 0.00 0.79 0.79 88 1008.9
20260506235513 10 91 0.0 1.6 0.00 0.79 0.79 89 1008.9
20260506235009 10 52 1.6 3.2 0.00 0.79 0.79 89 1008.8
20260506234507 10 60 3.2 4.8 0.00 0.79 0.79 89 1008.5
20260506234004 10 49 1.6 1.6 0.00 0.79 0.79 89 1008.6
20260506233500 10 0 0.0 1.6 0.00 0.79 0.79 88 1008.5
20260506232956 10 358 1.6 1.6 0.00 0.79 0.79 88 1008.5
20260506232453 11 116 1.6 1.6 0.00 0.79 0.79 88 1008.5
20260506231949 11 35 0.0 1.6 0.00 0.79 0.79 89 1008.4
20260506231447 11 36 0.0 1.6 0.00 0.79 0.79 89 1008.3
20260506230943 11 74 3.2 4.8 0.00 0.79 0.79 88 1008.3
20260506230440 11 350 4.8 4.8 0.00 0.79 0.79 89 1008.4
20260506225936 11 116 0.0 4.8 0.00 0.79 0.79 89 1008.0
20260506225434 12 141 3.2 4.8 0.00 0.79 0.79 89 1008.0
20260506224931 12 108 0.0 1.6 0.00 0.79 0.79 89 1007.6
20260506224428 12 52 0.0 3.2 0.00 0.79 0.79 87 1007.6
20260506223924 13 55 1.6 4.8 0.00 0.79 0.79 85 1007.3
20260506223420 15 7 3.2 16.1 0.00 0.79 0.79 86 1007.2
20260506222917 16 306 0.0 0.0 0.00 0.79 0.79 92 1006.6
20260506222414 16 306 0.0 0.0 0.00 0.79 0.79 92 1006.3
20260506221911 16 306 1.6 1.6 0.00 0.79 0.79 92 1006.5
20260506221408 16 165 0.0 0.0 0.00 0.79 0.79 92 1006.5
20260506220906 16 165 0.0 0.0 0.00 0.79 0.79 92 1006.4
20260506220401 16 165 0.0 0.0 0.00 0.79 0.79 92 1006.2
20260506215858 16 165 0.0 0.0 0.00 0.79 0.79 91 1006.5
20260506215354 16 165 0.0 0.0 0.18 0.79 0.79 91 1006.2
20260506214850 16 165 0.0 0.0 0.00 0.76 0.76 91 1006.0
20260506214346 16 165 1.6 1.6 0.00 0.76 0.76 90 1006.1
20260506213845 16 329 1.6 3.2 0.00 0.76 0.76 88 1006.1
20260506213342 16 126 1.6 4.8 0.00 0.76 0.76 86 1006.0
20260506212839 16 344 0.0 4.8 0.00 0.76 0.76 86 1005.9
20260506212335 16 319 0.0 3.2 0.00 0.76 0.76 85 1005.7
20260506211830 17 131 1.6 6.4 0.00 0.76 0.76 85 1005.6
20260506211326 17 349 1.6 1.6 0.00 0.76 0.76 85 1005.6
20260506210824 17 306 0.0 3.2 0.00 0.76 0.76 86 1005.4
20260506210320 17 307 0.0 3.2 0.00 0.76 0.76 85 1005.4
20260506205818 17 26 0.0 3.2 0.00 0.76 0.76 87 1005.6
20260506205313 16 166 1.6 9.7 0.00 0.76 0.76 87 1005.5
20260506204810 16 326 3.2 3.2 0.00 0.76 0.76 88 1005.3
20260506204308 16 320 1.6 1.6 0.00 0.76 0.76 88 1005.4
20260506203806 16 294 3.2 3.2 0.00 0.76 0.76 89 1005.4
20260506203302 16 295 0.0 3.2 0.00 0.76 0.76 90 1005.2
20260506202759 16 159 0.0 1.6 0.00 0.76 0.76 91 1005.2
20260506202256 16 158 0.0 3.2 0.00 0.76 0.76 91 1005.3
20260506201752 16 308 0.0 1.6 0.00 0.76 0.76 92 1005.3
20260506201249 16 308 0.0 1.6 0.00 0.76 0.76 92 1005.4
20260506200747 16 320 0.0 0.0 0.00 0.76 0.76 92 1005.3
20260506200243 16 320 0.0 0.0 0.00 0.76 0.76 92 1005.6
20260506195739 16 269 0.0 0.0 0.00 0.76 0.76 92 1005.6
20260506195236 16 299 0.0 0.0 0.00 0.76 0.76 93 1005.6
20260506194733 16 299 1.6 3.2 0.00 0.76 0.76 93 1005.5
20260506194229 16 299 0.0 0.0 0.00 0.76 0.76 94 1005.7
20260506193728 16 300 1.6 3.2 0.00 0.76 0.76 94 1005.5
20260506193224 16 41 0.0 0.0 0.00 0.76 0.76 95 1005.8
20260506192720 16 41 0.0 0.0 0.00 0.76 0.76 95 1005.7
20260506192217 15 41 0.0 0.0 0.00 0.76 0.76 96 1005.7
20260506191714 15 41 0.0 0.0 0.00 0.76 0.76 96 1005.8
20260506191210 15 41 0.0 0.0 0.00 0.76 0.76 96 1005.6
20260506190708 15 41 0.0 0.0 0.00 0.76 0.76 95 1006.0
20260506190204 15 41 0.0 0.0 0.00 0.76 0.76 95 1005.9
20260506185702 15 41 0.0 0.0 0.00 0.76 0.76 95 1005.8
20260506185158 15 41 0.0 0.0 0.00 0.76 0.76 96 1005.9
20260506184656 15 41 0.0 0.0 0.00 0.76 0.76 96 1005.8
20260506184153 15 41 0.0 0.0 0.00 0.76 0.76 95 1005.7
20260506183649 15 20 0.0 0.0 0.00 0.76 0.76 95 1005.8
20260506183145 15 34 0.0 0.0 0.00 0.76 0.76 95 1006.0
20260506182643 15 100 0.0 0.0 0.00 0.76 0.76 95 1006.1
20260506182139 15 16 0.0 0.0 0.00 0.76 0.76 95 1006.2
20260506181637 15 16 0.0 0.0 0.00 0.76 0.76 95 1006.1
20260506181134 15 16 0.0 1.6 0.00 0.76 0.76 95 1006.1
20260506180631 15 24 3.2 4.8 0.00 0.76 0.76 95 1006.1
20260506180128 15 75 0.0 0.0 0.00 0.76 0.76 95 1006.3
20260506175624 15 289 0.0 0.0 0.13 0.76 0.76 95 1006.3
20260506175120 15 289 0.0 0.0 0.00 0.74 0.74 94 1006.3
20260506174619 15 289 0.0 0.0 0.00 0.74 0.74 94 1006.2
20260506174115 15 28 0.0 1.6 0.00 0.74 0.74 94 1006.4
20260506173613 15 34 0.0 1.6 0.18 0.74 0.74 94 1006.1
20260506173109 15 56 0.0 0.0 0.18 0.74 0.74 94 1006.3
20260506172607 15 74 1.6 1.6 0.00 0.71 0.71 94 1006.2
20260506172103 15 86 0.0 1.6 0.00 0.71 0.71 94 1006.3
20260506171600 15 325 3.2 3.2 0.13 0.71 0.71 93 1006.4
20260506171058 15 64 1.6 3.2 0.13 0.71 0.71 93 1006.5
20260506170555 15 335 0.0 1.6 0.00 0.69 0.69 93 1006.5
20260506170053 15 81 0.0 0.0 0.00 0.69 0.69 93 1006.3
20260506165551 15 81 0.0 0.0 0.00 0.69 0.69 93 1006.2
20260506165042 15 81 0.0 0.0 0.00 0.69 0.69 93 1006.1
20260506164539 15 81 0.0 1.6 0.18 0.69 0.69 92 1006.1
20260506164036 15 81 1.6 3.2 0.18 0.69 0.69 92 1006.2
20260506163532 15 171 0.0 1.6 0.00 0.66 0.66 92 1006.3
20260506163028 15 144 1.6 1.6 0.00 0.66 0.66 93 1006.2
20260506162524 15 31 1.6 1.6 0.00 0.66 0.66 92 1006.2
20260506162021 15 71 0.0 1.6 0.00 0.66 0.66 92 1006.2
20260506161518 15 73 0.0 1.6 0.00 0.66 0.66 92 1006.1
20260506161015 15 2 1.6 1.6 0.00 0.66 0.66 93 1006.1
20260506160513 15 11 0.0 0.0 0.00 0.66 0.66 93 1006.2
20260506160011 15 11 0.0 1.6 0.00 0.66 0.66 93 1006.2
20260506155509 15 55 0.0 1.6 0.00 0.66 0.66 93 1006.4
20260506153640 15 166 0.0 1.6 0.18 0.64 0.64 93 1006.4
20260506153137 15 167 0.0 3.2 0.18 0.64 0.64 93 1006.5
20260506152634 15 63 0.0 0.0 0.18 0.61 0.61 93 1006.5
20260506152131 15 73 0.0 3.2 0.48 0.61 0.61 94 1006.6
20260506151630 15 54 0.0 0.0 0.30 0.56 0.56 94 1006.8
20260506151126 15 54 0.0 0.0 0.30 0.53 0.53 93 1006.8
20260506150623 15 54 0.0 0.0 0.30 0.51 0.51 93 1006.6
20260506150120 15 54 0.0 0.0 0.13 0.48 0.48 93 1006.8
20260506145617 15 306 1.6 1.6 0.30 0.46 0.46 93 1006.7
20260506145114 15 56 0.0 0.0 0.30 0.43 0.43 93 1006.4
20260506144611 15 56 0.0 0.0 0.18 0.41 0.41 93 1006.6
20260506144108 15 56 0.0 0.0 0.13 0.38 0.38 93 1006.7
20260506143606 15 56 0.0 0.0 0.00 0.36 0.36 93 1006.8
20260506143103 15 336 3.2 9.7 0.18 0.36 0.36 93 1006.4
20260506142601 15 2 0.0 1.6 0.18 0.36 0.36 93 1006.5
20260506142059 15 2 0.0 0.0 0.13 0.33 0.33 92 1006.7
20260506141556 15 10 0.0 1.6 0.18 0.30 0.30 92 1006.6
20260506141055 15 7 0.0 0.0 0.36 0.30 0.30 92 1006.7
20260506140552 14 56 1.6 3.2 0.18 0.28 0.28 92 1006.9
20260506140049 15 61 0.0 1.6 0.13 0.25 0.25 92 1006.8
20260506135546 14 59 0.0 0.0 0.13 0.25 0.25 92 1007.2
20260506135042 15 59 0.0 0.0 0.00 0.23 0.23 92 1006.9
20260506134539 15 59 0.0 0.0 0.18 0.23 0.23 92 1007.0
20260506134035 15 59 0.0 0.0 0.30 0.23 0.23 92 1007.3
20260506133532 15 59 0.0 0.0 0.13 0.20 0.20 92 1007.4
20260506133029 15 58 0.0 0.0 0.18 0.18 0.18 92 1007.5
20260506132526 15 58 0.0 0.0 0.30 0.18 0.18 92 1007.3
20260506132023 15 58 0.0 0.0 0.13 0.15 0.15 91 1007.5
20260506131520 15 58 0.0 0.0 0.18 0.13 0.13 91 1007.5
20260506131017 15 58 0.0 1.6 0.13 0.10 0.10 90 1007.9
20260506130514 15 61 0.0 0.0 0.13 0.10 0.10 90 1007.7
20260506130011 15 61 0.0 0.0 0.18 0.08 0.08 90 1007.5
20260506125509 15 61 0.0 0.0 0.18 0.08 0.08 89 1007.7
20260506125007 15 61 0.0 1.6 0.13 0.05 0.05 87 1007.8
20260506124504 15 61 0.0 1.6 0.30 0.05 0.05 85 1007.7
20260506124002 15 61 0.0 1.6 0.18 0.03 0.03 83 1007.8
20260506123500 16 61 0.0 1.6 0.00 0.00 0.00 81 1007.5
20260506122957 16 331 0.0 1.6 0.00 0.00 0.00 77 1007.7
20260506122454 16 2 3.2 4.8 0.00 0.00 0.00 76 1007.3
20260506121953 16 5 1.6 3.2 0.00 0.00 0.00 75 1007.2
20260506121449 16 282 1.6 4.8 0.00 0.00 0.00 75 1007.4
20260506120946 16 277 0.0 0.0 0.00 0.00 0.00 75 1007.5
20260506120443 16 277 0.0 0.0 0.00 0.00 0.00 74 1007.5
20260506115941 16 8 3.2 4.8 0.00 0.00 0.00 74 1007.3
20260506115439 16 71 0.0 1.6 0.00 0.00 0.00 73 1007.2
20260506114937 16 70 1.6 1.6 0.00 0.00 0.00 74 1007.2
20260506114434 16 7 1.6 4.8 0.00 0.00 0.00 73 1007.3
20260506113932 17 103 0.0 3.2 0.00 0.00 0.00 72 1007.2
20260506113430 17 79 0.0 1.6 0.00 0.00 0.00 70 1007.0
20260506112926 17 142 1.6 1.6 0.00 0.00 0.00 69 1006.9
20260506112424 17 138 0.0 1.6 0.00 0.00 0.00 69 1006.9
20260506111921 17 306 1.6 4.8 0.00 0.00 0.00 69 1006.7
20260506111419 17 134 0.0 3.2 0.00 0.00 0.00 68 1006.9
20260506110916 17 162 0.0 4.8 0.00 0.00 0.00 68 1006.9
20260506110414 17 144 1.6 1.6 0.00 0.00 0.00 68 1006.6
20260506105910 17 195 0.0 1.6 0.00 0.00 0.00 68 1006.7
20260506105406 17 195 0.0 1.6 0.00 0.00 0.00 68 1006.7
20260506104904 17 136 0.0 1.6 0.00 0.00 0.00 68 1006.6
20260506104401 17 136 0.0 0.0 0.00 0.00 0.00 67 1006.7
20260506103859 17 136 0.0 0.0 0.00 0.00 0.00 66 1006.6
20260506103356 17 136 0.0 3.2 0.00 0.00 0.00 65 1006.4
20260506102853 17 77 1.6 1.6 0.00 0.00 0.00 65 1006.3
20260506102351 17 77 0.0 1.6 0.00 0.00 0.00 64 1006.1
20260506101848 17 77 0.0 1.6 0.00 0.00 0.00 63 1006.4
20260506101344 17 71 1.6 1.6 0.00 0.00 0.00 62 1006.4
20260506100842 17 71 1.6 3.2 0.00 0.00 0.00 62 1006.5
20260506100340 17 22 0.0 1.6 0.00 0.00 0.00 61 1006.3
20260506095838 17 95 0.0 1.6 0.00 0.00 0.00 60 1006.3
20260506095335 17 124 0.0 0.0 0.00 0.00 0.00 60 1006.4
20260506094832 17 124 0.0 1.6 0.00 0.00 0.00 60 1006.5
20260506094331 17 124 0.0 3.2 0.00 0.00 0.00 59 1006.5
20260506093829 17 124 0.0 1.6 0.00 0.00 0.00 59 1006.6
20260506093326 17 156 0.0 1.6 0.00 0.00 0.00 59 1006.6
20260506092823 17 127 1.6 3.2 0.00 0.00 0.00 59 1006.5
20260506092321 17 252 0.0 0.0 0.00 0.00 0.00 59 1006.8
20260506091818 17 252 0.0 1.6 0.00 0.00 0.00 59 1006.6
20260506091315 17 252 0.0 1.6 0.00 0.00 0.00 58 1006.6
20260506090813 18 252 0.0 3.2 0.00 0.00 0.00 58 1006.6
20260506090310 18 316 0.0 1.6 0.00 0.00 0.00 56 1006.8
20260506085806 18 324 0.0 0.0 0.00 0.00 0.00 57 1006.6
20260506085305 17 351 1.6 1.6 0.00 0.00 0.00 57 1006.8
20260506084759 17 38 3.2 3.2 0.00 0.00 0.00 57 1006.8
20260506084256 18 35 0.0 3.2 0.00 0.00 0.00 57 1006.6
20260506083753 18 71 0.0 1.6 0.00 0.00 0.00 56 1006.5
20260506083251 18 90 4.8 4.8 0.00 0.00 0.00 55 1006.7
20260506082748 18 353 0.0 3.2 0.00 0.00 0.00 55 1006.7
20260506082243 18 79 0.0 3.2 0.00 0.00 0.00 55 1007.0
20260506081741 18 92 1.6 3.2 0.00 0.00 0.00 55 1006.6
20260506081238 18 318 3.2 4.8 0.00 0.00 0.00 54 1006.7
20260506080737 18 108 0.0 1.6 0.00 0.00 0.00 53 1006.5
20260506080232 18 107 0.0 4.8 0.00 0.00 0.00 53 1006.7
20260506073217 18 57 0.0 3.2 0.00 0.00 0.00 52 1006.6
20260506072713 19 275 0.0 1.6 0.00 0.00 0.00 52 1006.9
20260506072211 18 275 0.0 4.8 0.00 0.00 0.00 50 1007.2
20260506071708 18 13 0.0 1.6 0.00 0.00 0.00 51 1007.2
20260506071206 18 41 0.0 1.6 0.00 0.00 0.00 51 1007.0
20260506070703 18 270 0.0 3.2 0.00 0.00 0.00 50 1007.2
20260506070200 18 308 0.0 1.6 0.00 0.00 0.00 49 1007.3
20260506062137 18 112 4.8 6.4 0.00 0.00 0.00 49 1007.4
20260506061632 18 325 1.6 3.2 0.00 0.00 0.00 49 1007.4
20260506061131 18 150 1.6 4.8 0.00 0.00 0.00 49 1007.5
20260506060629 18 141 1.6 1.6 0.00 0.00 0.00 50 1007.6
20260506060125 18 142 0.0 3.2 0.00 0.00 0.00 49 1007.7
20260506051057 19 135 1.6 1.6 0.00 0.00 0.00 47 1008.2
20260506050555 18 150 0.0 9.7 0.00 0.00 0.00 46 1008.4
20260506045046 18 233 1.6 3.2 0.00 0.00 0.00 48 1008.3
20260506044544 18 136 1.6 3.2 0.00 0.00 0.00 47 1008.3
20260506044040 18 154 0.0 1.6 0.00 0.00 0.00 49 1008.1
20260506043537 18 153 1.6 3.2 0.00 0.00 0.00 47 1008.1
20260506043036 18 136 1.6 3.2 0.00 0.00 0.00 46 1008.2
20260506042534 18 136 1.6 3.2 0.00 0.00 0.00 47 1008.2
20260506042032 18 129 1.6 3.2 0.00 0.00 0.00 48 1008.0
20260506041531 18 264 0.0 1.6 0.00 0.00 0.00 49 1008.3
20260506041027 18 275 0.0 1.6 0.00 0.00 0.00 49 1008.4
20260506040525 18 126 0.0 1.6 0.00 0.00 0.00 51 1008.5
20260506040020 18 126 0.0 1.6 0.00 0.00 0.00 51 1008.5
20260506035517 18 264 0.0 3.2 0.00 0.00 0.00 49 1008.3
20260506035014 18 128 0.0 1.6 0.00 0.00 0.00 50 1008.5
20260506034512 18 63 0.0 0.0 0.00 0.00 0.00 50 1008.5
20260506034009 19 12 0.0 0.0 0.00 0.00 0.00 49 1008.3
20260506033506 18 52 0.0 0.0 0.00 0.00 0.00 46 1008.3
20260506033002 18 111 0.0 0.0 0.00 0.00 0.00 48 1008.4
20260506032500 19 73 0.0 1.6 0.00 0.00 0.00 49 1008.3
20260506031956 18 114 0.0 1.6 0.00 0.00 0.00 50 1008.3
20260506031454 18 74 0.0 1.6 0.00 0.00 0.00 53 1008.3
20260506030951 18 108 1.6 3.2 0.00 0.00 0.00 50 1008.2
20260506030449 18 111 0.0 0.0 0.00 0.00 0.00 54 1008.4
20260506025946 18 111 0.0 0.0 0.00 0.00 0.00 54 1008.3
20260506025443 18 111 0.0 0.0 0.00 0.00 0.00 54 1008.3
20260506024939 18 111 0.0 0.0 0.00 0.00 0.00 53 1008.3
20260506024436 18 110 0.0 0.0 0.00 0.00 0.00 52 1008.3
20260506023932 18 101 0.0 0.0 0.00 0.00 0.00 54 1008.6
20260506023429 18 101 0.0 0.0 0.00 0.00 0.00 53 1008.4
20260506022926 18 101 0.0 0.0 0.00 0.00 0.00 53 1008.5
20260506022424 18 101 0.0 0.0 0.00 0.00 0.00 53 1008.7
20260506021921 19 101 0.0 0.0 0.00 0.00 0.00 52 1008.5
20260506021418 20 101 0.0 0.0 0.00 0.00 0.00 50 1008.8
20260506020915 20 101 0.0 0.0 0.00 0.00 0.00 51 1008.7
20260506020413 20 101 0.0 0.0 0.00 0.00 0.00 49 1008.7
20260506015910 21 101 0.0 0.0 0.00 0.00 0.00 46 1008.5
20260506015408 21 101 0.0 0.0 0.00 0.00 0.00 46 1008.4
20260506014904 21 101 0.0 0.0 0.00 0.00 0.00 44 1008.5
20260506014401 21 100 0.0 1.6 0.00 0.00 0.00 44 1008.5
20260506013857 21 100 0.0 0.0 0.00 0.00 0.00 45 1008.2
20260506013356 21 100 1.6 1.6 0.00 0.00 0.00 44 1008.4
20260506012851 21 100 0.0 1.6 0.00 0.00 0.00 46 1008.3
20260506012348 21 120 0.0 3.2 0.00 0.00 0.00 44 1008.3
20260506011846 21 70 1.6 3.2 0.00 0.00 0.00 45 1008.3
20260506011342 21 155 0.0 0.0 0.00 0.00 0.00 45 1008.3
20260506010840 21 118 0.0 1.6 0.00 0.00 0.00 47 1008.3
20260506010338 21 272 0.0 1.6 0.00 0.00 0.00 46 1008.0
20260506005834 21 272 0.0 0.0 0.00 0.00 0.00 46 1008.0
20260506005331 21 272 0.0 1.6 0.00 0.00 0.00 45 1007.8
20260506004827 22 126 0.0 1.6 0.00 0.00 0.00 45 1007.7
20260506004325 22 126 0.0 0.0 0.00 0.00 0.00 42 1008.0
20260506003821 22 126 0.0 0.0 0.00 0.00 0.00 41 1007.7
20260506003317 22 126 0.0 0.0 0.00 0.00 0.00 40 1007.7
20260506002813 22 126 0.0 0.0 0.00 0.00 0.00 39 1007.7
20260506002310 22 125 0.0 0.0 0.00 0.00 0.00 39 1007.3
20260506001806 22 127 0.0 1.6 0.00 0.00 0.00 39 1007.2